Time,TemperatureF,DewpointF,PressureIn,WindDirection,WindDirectionDegrees,WindSpeedMPH,WindSpeedGustMPH,Humidity,HourlyPrecipIn,Conditions,Clouds,dailyrainin,SolarRadiationWatts/m^2,SoftwareType,DateUTC
2013-11-04 00:00:00,46.9,37.6,30.16,SE,139,12.0,12.0,70,0.00,,,0.00,0,Wunderground v.1.15,2013-11-04 06:00:00,
2013-11-04 00:05:00,46.9,37.6,30.16,SE,130,12.0,16.0,70,0.00,,,0.00,0,Wunderground v.1.15,2013-11-04 06:05:00,
2013-11-04 00:10:00,46.9,37.6,30.16,SE,133,13.0,13.0,70,0.00,,,0.00,0,Wunderground v.1.15,2013-11-04 06:10:00,
2013-11-04 00:20:00,46.7,37.4,30.17,SE,142,14.0,15.0,70,0.00,,,0.00,0,Wunderground v.1.15,2013-11-04 06:20:00,
2013-11-04 00:25:00,46.7,37.4,30.17,SE,131,13.0,15.0,70,0.00,,,0.00,0,Wunderground v.1.15,2013-11-04 06:25:00,
2013-11-04 00:30:00,46.6,37.3,30.17,SE,128,14.0,14.0,70,0.00,,,0.00,0,Wunderground v.1.15,2013-11-04 06:30:00,
2013-11-04 00:35:00,46.5,37.6,30.17,SE,141,13.0,14.0,71,0.00,,,0.00,0,Wunderground v.1.15,2013-11-04 06:35:00,
2013-11-04 00:40:00,46.4,37.5,30.16,SE,126,13.0,14.0,71,0.00,,,0.00,0,Wunderground v.1.15,2013-11-04 06:40:00,
2013-11-04 00:45:00,46.4,37.5,30.16,SE,136,13.0,14.0,71,0.00,,,0.00,0,Wunderground v.1.15,2013-11-04 06:45:00,
2013-11-04 00:55:00,46.2,37.3,30.16,SE,131,12.0,13.0,71,0.00,,,0.00,0,Wunderground v.1.15,2013-11-04 06:55:00,
2013-11-04 01:00:00,46.1,37.2,30.16,SE,136,12.0,13.0,71,0.00,,,0.00,0,Wunderground v.1.15,2013-11-04 07:00:00,
2013-11-04 01:10:00,46.1,37.2,30.16,SE,131,12.0,12.0,71,0.00,,,0.00,0,Wunderground v.1.15,2013-11-04 07:10:00,
2013-11-04 01:15:00,46.1,37.2,30.16,SE,136,12.0,12.0,71,0.00,,,0.00,0,Wunderground v.1.15,2013-11-04 07:15:00,
2013-11-04 01:20:00,46.1,37.6,30.17,SE,138,13.0,13.0,72,0.00,,,0.00,0,Wunderground v.1.15,2013-11-04 07:20:00,
2013-11-04 01:25:00,46.2,37.7,30.18,SE,140,12.0,13.0,72,0.00,,,0.00,0,Wunderground v.1.15,2013-11-04 07:25:00,
2013-11-04 01:30:00,46.2,37.7,30.18,SE,136,12.0,12.0,72,0.00,,,0.00,0,Wunderground v.1.15,2013-11-04 07:30:00,
2013-11-04 01:35:00,46.1,37.6,30.17,SE,134,12.0,15.0,72,0.00,,,0.00,0,Wunderground v.1.15,2013-11-04 07:35:00,
2013-11-04 01:40:00,46.1,37.6,30.17,SE,130,12.0,12.0,72,0.00,,,0.00,0,Wunderground v.1.15,2013-11-04 07:40:00,
2013-11-04 01:45:00,46.1,37.6,30.17,SE,136,11.0,12.0,72,0.00,,,0.00,0,Wunderground v.1.15,2013-11-04 07:45:00,
2013-11-04 01:50:00,46.1,37.6,30.17,SE,140,12.0,13.0,72,0.00,,,0.00,0,Wunderground v.1.15,2013-11-04 07:50:00,
2013-11-04 02:00:00,46.1,37.6,30.15,SE,129,13.0,13.0,72,0.00,,,0.00,0,Wunderground v.1.15,2013-11-04 08:00:00,
2013-11-04 02:10:00,46.0,37.5,30.16,SE,136,12.0,12.0,72,0.00,,,0.00,0,Wunderground v.1.15,2013-11-04 08:10:00,
2013-11-04 02:15:00,46.0,37.5,30.16,SE,135,11.0,13.0,72,0.00,,,0.00,0,Wunderground v.1.15,2013-11-04 08:15:00,
2013-11-04 02:20:00,46.0,37.5,30.16,SE,138,11.0,11.0,72,0.00,,,0.00,0,Wunderground v.1.15,2013-11-04 08:20:00,
2013-11-04 02:25:00,46.0,37.5,30.16,SE,131,11.0,11.0,72,0.00,,,0.00,0,Wunderground v.1.15,2013-11-04 08:25:00,
2013-11-04 02:30:00,46.0,37.5,30.16,SE,133,12.0,12.0,72,0.00,,,0.00,0,Wunderground v.1.15,2013-11-04 08:30:00,
2013-11-04 02:35:00,45.9,37.4,30.16,SE,134,11.0,12.0,72,0.00,,,0.00,0,Wunderground v.1.15,2013-11-04 08:35:00,
2013-11-04 02:40:00,45.9,37.4,30.16,SE,135,11.0,11.0,72,0.00,,,0.00,0,Wunderground v.1.15,2013-11-04 08:40:00,
2013-11-04 02:45:00,46.0,37.5,30.16,SE,136,12.0,12.0,72,0.00,,,0.00,0,Wunderground v.1.15,2013-11-04 08:45:00,
2013-11-04 02:50:00,46.0,37.5,30.16,SE,128,12.0,12.0,72,0.00,,,0.00,0,Wunderground v.1.15,2013-11-04 08:50:00,
2013-11-04 02:55:00,45.9,37.4,30.14,ESE,121,12.0,13.0,72,0.00,,,0.00,0,Wunderground v.1.15,2013-11-04 08:55:00,
2013-11-04 03:05:00,45.8,37.3,30.15,SE,136,13.0,13.0,72,0.00,,,0.00,0,Wunderground v.1.15,2013-11-04 09:05:00,
2013-11-04 03:10:00,45.8,37.6,30.15,SE,129,13.0,14.0,73,0.00,,,0.00,0,Wunderground v.1.15,2013-11-04 09:10:00,
2013-11-04 03:15:00,45.8,37.6,30.14,SE,128,13.0,14.0,73,0.00,,,0.00,0,Wunderground v.1.15,2013-11-04 09:15:00,
2013-11-04 03:20:00,45.7,37.5,30.14,SE,128,13.0,14.0,73,0.00,,,0.00,0,Wunderground v.1.15,2013-11-04 09:20:00,
2013-11-04 03:25:00,45.7,37.5,30.14,ESE,123,13.0,14.0,73,0.00,,,0.00,0,Wunderground v.1.15,2013-11-04 09:25:00,
2013-11-04 03:30:00,45.7,37.5,30.14,SE,132,12.0,12.0,73,0.00,,,0.00,0,Wunderground v.1.15,2013-11-04 09:30:00,
2013-11-04 03:35:00,45.7,37.5,30.14,SE,140,12.0,13.0,73,0.00,,,0.00,0,Wunderground v.1.15,2013-11-04 09:35:00,
2013-11-04 03:40:00,45.7,37.5,30.14,SE,134,13.0,14.0,73,0.00,,,0.00,0,Wunderground v.1.15,2013-11-04 09:40:00,
2013-11-04 03:45:00,45.9,37.7,30.14,SE,136,14.0,16.0,73,0.00,,,0.00,0,Wunderground v.1.15,2013-11-04 09:45:00,
2013-11-04 03:50:00,46.0,37.8,30.14,SE,128,14.0,14.0,73,0.00,,,0.00,0,Wunderground v.1.15,2013-11-04 09:50:00,
2013-11-04 03:55:00,46.1,37.6,30.13,SE,138,14.0,14.0,72,0.00,,,0.00,0,Wunderground v.1.15,2013-11-04 09:55:00,
2013-11-04 04:00:00,46.1,37.6,30.13,SE,129,14.0,14.0,72,0.00,,,0.00,0,Wunderground v.1.15,2013-11-04 10:00:00,
2013-11-04 04:10:00,46.1,37.6,30.13,SE,133,13.0,14.0,72,0.00,,,0.00,0,Wunderground v.1.15,2013-11-04 10:10:00,
2013-11-04 04:15:00,46.1,37.6,30.13,SE,130,14.0,20.0,72,0.00,,,0.00,0,Wunderground v.1.15,2013-11-04 10:15:00,
2013-11-04 04:20:00,46.3,37.8,30.12,SE,127,15.0,15.0,72,0.00,,,0.00,0,Wunderground v.1.15,2013-11-04 10:20:00,
2013-11-04 04:25:00,46.3,38.1,30.13,SE,140,16.0,16.0,73,0.00,,,0.00,0,Wunderground v.1.15,2013-11-04 10:25:00,
2013-11-04 04:30:00,46.2,38.0,30.13,SE,145,14.0,14.0,73,0.00,,,0.00,0,Wunderground v.1.15,2013-11-04 10:30:00,
2013-11-04 04:35:00,46.2,38.0,30.13,SE,144,14.0,18.0,73,0.00,,,0.00,0,Wunderground v.1.15,2013-11-04 10:35:00,
2013-11-04 04:40:00,46.1,38.3,30.13,SE,135,15.0,18.0,74,0.00,,,0.00,0,Wunderground v.1.15,2013-11-04 10:40:00,
2013-11-04 04:45:00,46.1,38.3,30.13,SE,137,14.0,18.0,74,0.00,,,0.00,0,Wunderground v.1.15,2013-11-04 10:45:00,
2013-11-04 04:50:00,46.2,38.4,30.12,SE,133,15.0,16.0,74,0.00,,,0.00,0,Wunderground v.1.15,2013-11-04 10:50:00,
2013-11-04 04:55:00,46.3,38.5,30.12,SE,140,16.0,18.0,74,0.00,,,0.00,0,Wunderground v.1.15,2013-11-04 10:55:00,
2013-11-04 05:05:00,46.3,38.5,30.13,SE,144,16.0,18.0,74,0.00,,,0.00,0,Wunderground v.1.15,2013-11-04 11:05:00,
2013-11-04 05:15:00,46.2,38.4,30.13,SE,138,16.0,17.0,74,0.00,,,0.00,0,Wunderground v.1.15,2013-11-04 11:15:00,
2013-11-04 05:20:00,46.3,38.5,30.13,SE,142,16.0,16.0,74,0.00,,,0.00,0,Wunderground v.1.15,2013-11-04 11:20:00,
2013-11-04 05:25:00,46.3,38.5,30.13,SE,138,15.0,19.0,74,0.00,,,0.00,0,Wunderground v.1.15,2013-11-04 11:25:00,
2013-11-04 05:30:00,46.3,38.5,30.13,SSE,154,14.0,14.0,74,0.00,,,0.00,0,Wunderground v.1.15,2013-11-04 11:30:00,
2013-11-04 05:35:00,46.3,38.5,30.13,SE,144,14.0,14.0,74,0.00,,,0.00,0,Wunderground v.1.15,2013-11-04 11:35:00,
2013-11-04 05:40:00,46.4,38.9,30.13,SE,145,13.0,15.0,75,0.00,,,0.00,0,Wunderground v.1.15,2013-11-04 11:40:00,
2013-11-04 05:50:00,46.4,38.6,30.12,SE,144,14.0,14.0,74,0.00,,,0.00,0,Wunderground v.1.15,2013-11-04 11:50:00,
2013-11-04 05:55:00,46.3,38.5,30.12,SE,135,13.0,14.0,74,0.00,,,0.00,0,Wunderground v.1.15,2013-11-04 11:55:00,
2013-11-04 06:00:00,46.3,38.8,30.12,SSE,147,13.0,13.0,75,0.00,,,0.00,0,Wunderground v.1.15,2013-11-04 12:00:00,
2013-11-04 06:05:00,46.3,38.8,30.12,SE,145,13.0,13.0,75,0.00,,,0.00,0,Wunderground v.1.15,2013-11-04 12:05:00,
2013-11-04 06:10:00,46.3,38.8,30.12,SE,138,13.0,14.0,75,0.00,,,0.00,0,Wunderground v.1.15,2013-11-04 12:10:00,
2013-11-04 06:20:00,46.2,38.7,30.13,SE,136,13.0,14.0,75,0.00,,,0.00,0,Wunderground v.1.15,2013-11-04 12:20:00,
2013-11-04 06:25:00,46.2,38.7,30.12,SE,137,13.0,14.0,75,0.00,,,0.00,0,Wunderground v.1.15,2013-11-04 12:25:00,
2013-11-04 06:30:00,46.1,38.6,30.12,SE,137,12.0,12.0,75,0.00,,,0.00,0,Wunderground v.1.15,2013-11-04 12:30:00,
2013-11-04 06:35:00,46.1,39.0,30.12,SE,136,12.0,13.0,76,0.00,,,0.00,0,Wunderground v.1.15,2013-11-04 12:35:00,
2013-11-04 06:40:00,46.1,39.0,30.12,SE,143,12.0,12.0,76,0.00,,,0.00,0,Wunderground v.1.15,2013-11-04 12:40:00,
2013-11-04 06:45:00,46.1,39.0,30.11,SE,143,12.0,12.0,76,0.00,,,0.00,0,Wunderground v.1.15,2013-11-04 12:45:00,
2013-11-04 06:55:00,46.1,39.0,30.11,SE,137,12.0,13.0,76,0.00,,,0.00,11,Wunderground v.1.15,2013-11-04 12:55:00,
2013-11-04 07:00:00,46.1,39.0,30.12,SE,146,12.0,12.0,76,0.00,,,0.00,16,Wunderground v.1.15,2013-11-04 13:00:00,
2013-11-04 07:05:00,46.2,39.1,30.13,SSE,153,12.0,12.0,76,0.00,,,0.00,19,Wunderground v.1.15,2013-11-04 13:05:00,
2013-11-04 07:10:00,46.2,39.1,30.13,SSE,155,12.0,12.0,76,0.00,,,0.00,19,Wunderground v.1.15,2013-11-04 13:10:00,
2013-11-04 07:15:00,46.3,39.1,30.13,SSE,149,11.0,12.0,76,0.00,,,0.00,23,Wunderground v.1.15,2013-11-04 13:15:00,
2013-11-04 07:25:00,46.6,39.1,30.13,SE,140,12.0,12.0,75,0.00,,,0.00,28,Wunderground v.1.15,2013-11-04 13:25:00,
2013-11-04 07:30:00,46.8,39.3,30.13,SE,144,12.0,12.0,75,0.00,,,0.00,30,Wunderground v.1.15,2013-11-04 13:30:00,
2013-11-04 07:35:00,46.9,39.4,30.12,SE,146,13.0,15.0,75,0.00,,,0.00,35,Wunderground v.1.15,2013-11-04 13:35:00,
2013-11-04 07:40:00,47.0,39.1,30.13,SE,140,14.0,14.0,74,0.00,,,0.00,49,Wunderground v.1.15,2013-11-04 13:40:00,
2013-11-04 07:45:00,47.1,39.6,30.12,SE,141,14.0,14.0,75,0.00,,,0.00,63,Wunderground v.1.15,2013-11-04 13:45:00,
2013-11-04 07:50:00,47.1,39.6,30.12,SSE,150,13.0,15.0,75,0.00,,,0.00,63,Wunderground v.1.15,2013-11-04 13:50:00,
2013-11-04 08:00:00,47.1,39.2,30.12,SE,146,14.0,14.0,74,0.00,,,0.00,70,Wunderground v.1.15,2013-11-04 14:00:00,
2013-11-04 08:05:00,47.2,39.7,30.12,SSE,157,14.0,14.0,75,0.00,,,0.00,63,Wunderground v.1.15,2013-11-04 14:05:00,
2013-11-04 08:10:00,47.2,39.3,30.13,SSE,165,13.0,13.0,74,0.00,,,0.00,93,Wunderground v.1.15,2013-11-04 14:10:00,
2013-11-04 08:15:00,47.6,40.1,30.13,SSE,156,12.0,16.0,75,0.00,,,0.00,216,Wunderground v.1.15,2013-11-04 14:15:00,
2013-11-04 08:20:00,48.1,39.9,30.13,SSE,150,13.0,14.0,73,0.00,,,0.00,134,Wunderground v.1.15,2013-11-04 14:20:00,
2013-11-04 08:30:00,48.7,40.4,30.12,SSE,150,14.0,14.0,73,0.00,,,0.00,387,Wunderground v.1.15,2013-11-04 14:30:00,
2013-11-04 08:35:00,49.6,40.2,30.12,SE,146,15.0,21.0,70,0.00,,,0.00,373,Wunderground v.1.15,2013-11-04 14:35:00,
2013-11-04 08:40:00,50.0,40.2,30.12,SSE,167,16.0,20.0,69,0.00,,,0.00,229,Wunderground v.1.15,2013-11-04 14:40:00,
2013-11-04 08:45:00,50.1,40.3,30.12,SSE,166,17.0,20.0,69,0.00,,,0.00,276,Wunderground v.1.15,2013-11-04 14:45:00,
2013-11-04 08:50:00,50.0,40.6,30.13,SSE,162,15.0,15.0,70,0.00,,,0.00,345,Wunderground v.1.15,2013-11-04 14:50:00,
2013-11-04 08:55:00,50.0,40.6,30.12,SSE,167,14.0,15.0,70,0.00,,,0.00,350,Wunderground v.1.15,2013-11-04 14:55:00,
2013-11-04 09:05:00,50.0,40.6,30.12,SSE,159,15.0,17.0,70,0.00,,,0.00,179,Wunderground v.1.15,2013-11-04 15:05:00,
2013-11-04 09:10:00,49.8,40.4,30.12,SSE,163,15.0,15.0,70,0.00,,,0.00,183,Wunderground v.1.15,2013-11-04 15:10:00,
2013-11-04 09:15:00,49.8,40.8,30.12,South,175,15.0,15.0,71,0.00,,,0.00,353,Wunderground v.1.15,2013-11-04 15:15:00,
2013-11-04 09:20:00,50.0,40.6,30.12,SSE,148,14.0,17.0,70,0.00,,,0.00,221,Wunderground v.1.15,2013-11-04 15:20:00,
2013-11-04 09:25:00,50.3,40.5,30.11,SSE,153,14.0,17.0,69,0.00,,,0.00,171,Wunderground v.1.15,2013-11-04 15:25:00,
2013-11-04 09:35:00,50.5,40.7,30.11,SE,143,13.0,17.0,69,0.00,,,0.00,221,Wunderground v.1.15,2013-11-04 15:35:00,
2013-11-04 09:40:00,50.6,40.4,30.12,SSE,163,13.0,13.0,68,0.00,,,0.00,216,Wunderground v.1.15,2013-11-04 15:40:00,
2013-11-04 09:45:00,50.7,40.9,30.12,South,178,13.0,14.0,69,0.00,,,0.00,209,Wunderground v.1.15,2013-11-04 15:45:00,
2013-11-04 09:50:00,50.8,40.6,30.12,SSE,154,13.0,14.0,68,0.00,,,0.00,202,Wunderground v.1.15,2013-11-04 15:50:00,
2013-11-04 09:55:00,50.8,40.6,30.13,South,169,13.0,14.0,68,0.00,,,0.00,193,Wunderground v.1.15,2013-11-04 15:55:00,
2013-11-04 10:00:00,51.0,40.8,30.13,SSE,156,12.0,12.0,68,0.00,,,0.00,192,Wunderground v.1.15,2013-11-04 16:00:00,
2013-11-04 10:05:00,51.2,41.0,30.13,SSE,151,11.0,15.0,68,0.00,,,0.00,200,Wunderground v.1.15,2013-11-04 16:05:00,
2013-11-04 10:10:00,51.5,41.3,30.13,South,171,11.0,15.0,68,0.00,,,0.00,232,Wunderground v.1.15,2013-11-04 16:10:00,
2013-11-04 10:15:00,51.8,41.6,30.13,SSE,163,10.0,15.0,68,0.00,,,0.00,258,Wunderground v.1.15,2013-11-04 16:15:00,
2013-11-04 10:20:00,52.2,41.2,30.13,SSE,168,9.0,9.0,66,0.00,,,0.00,253,Wunderground v.1.15,2013-11-04 16:20:00,
2013-11-04 10:25:00,52.5,41.5,30.13,SSE,165,9.0,11.0,66,0.00,,,0.00,236,Wunderground v.1.15,2013-11-04 16:25:00,
2013-11-04 10:30:00,52.9,41.4,30.13,SSE,165,11.0,11.0,65,0.00,,,0.00,236,Wunderground v.1.15,2013-11-04 16:30:00,
2013-11-04 10:40:00,53.5,41.2,30.12,South,188,12.0,12.0,63,0.00,,,0.00,197,Wunderground v.1.15,2013-11-04 16:40:00,
2013-11-04 10:45:00,53.7,41.4,30.12,SSE,161,12.0,15.0,63,0.00,,,0.00,209,Wunderground v.1.15,2013-11-04 16:45:00,
2013-11-04 10:50:00,53.8,41.5,30.11,South,172,13.0,13.0,63,0.00,,,0.00,211,Wunderground v.1.15,2013-11-04 16:50:00,
2013-11-04 10:55:00,53.8,41.5,30.11,South,178,13.0,14.0,63,0.00,,,0.00,255,Wunderground v.1.15,2013-11-04 16:55:00,
2013-11-04 11:00:00,54.1,41.8,30.11,SSE,159,13.0,13.0,63,0.00,,,0.00,304,Wunderground v.1.15,2013-11-04 17:00:00,
2013-11-04 11:05:00,54.2,41.5,30.11,South,172,13.0,13.0,62,0.00,,,0.00,193,Wunderground v.1.15,2013-11-04 17:05:00,
2013-11-04 11:15:00,54.3,41.6,30.10,SSE,167,11.0,14.0,62,0.00,,,0.00,167,Wunderground v.1.15,2013-11-04 17:15:00,
2013-11-04 11:20:00,54.4,41.6,30.10,South,175,11.0,15.0,62,0.00,,,0.00,162,Wunderground v.1.15,2013-11-04 17:20:00,
2013-11-04 11:25:00,54.3,42.0,30.10,South,173,13.0,15.0,63,0.00,,,0.00,188,Wunderground v.1.15,2013-11-04 17:25:00,
2013-11-04 11:30:00,54.2,41.9,30.10,South,191,13.0,13.0,63,0.00,,,0.00,206,Wunderground v.1.15,2013-11-04 17:30:00,
2013-11-04 11:35:00,54.2,41.9,30.09,SSE,158,12.0,13.0,63,0.00,,,0.00,181,Wunderground v.1.15,2013-11-04 17:35:00,
2013-11-04 11:45:00,53.6,41.7,30.10,South,186,13.0,16.0,64,0.00,,,0.00,97,Wunderground v.1.15,2013-11-04 17:45:00,
2013-11-04 11:50:00,53.3,41.8,30.10,SSW,193,13.0,20.0,65,0.00,,,0.00,95,Wunderground v.1.15,2013-11-04 17:50:00,
2013-11-04 11:55:00,53.1,42.0,30.10,South,173,14.0,20.0,66,0.00,,,0.00,86,Wunderground v.1.15,2013-11-04 17:55:00,
2013-11-04 12:00:00,53.0,41.9,30.11,South,175,14.0,14.0,66,0.00,,,0.00,97,Wunderground v.1.15,2013-11-04 18:00:00,
2013-11-04 12:05:00,52.7,41.7,30.10,South,181,14.0,20.0,66,0.00,,,0.00,93,Wunderground v.1.15,2013-11-04 18:05:00,
2013-11-04 12:10:00,52.7,42.0,30.10,South,184,13.0,14.0,67,0.00,,,0.00,91,Wunderground v.1.15,2013-11-04 18:10:00,
2013-11-04 12:20:00,52.7,42.0,30.09,South,175,11.0,15.0,67,0.00,,,0.00,123,Wunderground v.1.15,2013-11-04 18:20:00,
2013-11-04 12:25:00,52.8,42.1,30.09,South,181,11.0,15.0,67,0.00,,,0.00,128,Wunderground v.1.15,2013-11-04 18:25:00,
2013-11-04 12:30:00,53.0,42.7,30.09,South,185,12.0,12.0,68,0.00,,,0.00,137,Wunderground v.1.15,2013-11-04 18:30:00,
2013-11-04 12:35:00,53.2,42.9,30.09,South,179,11.0,12.0,68,0.00,,,0.00,163,Wunderground v.1.15,2013-11-04 18:35:00,
2013-11-04 12:40:00,53.4,43.1,30.09,South,188,11.0,21.0,68,0.00,,,0.00,179,Wunderground v.1.15,2013-11-04 18:40:00,
2013-11-04 12:50:00,53.9,43.2,30.09,South,177,12.0,18.0,67,0.00,,,0.00,216,Wunderground v.1.15,2013-11-04 18:50:00,
2013-11-04 12:55:00,54.1,43.4,30.08,South,175,12.0,18.0,67,0.00,,,0.00,287,Wunderground v.1.15,2013-11-04 18:55:00,
2013-11-04 13:00:00,54.6,43.5,30.08,South,184,14.0,18.0,66,0.00,,,0.00,301,Wunderground v.1.15,2013-11-04 19:00:00,
2013-11-04 13:10:00,55.0,43.8,30.08,South,181,13.0,13.0,66,0.00,,,0.00,243,Wunderground v.1.15,2013-11-04 19:10:00,
2013-11-04 13:15:00,55.1,43.5,30.07,SSE,161,13.0,13.0,65,0.00,,,0.00,248,Wunderground v.1.15,2013-11-04 19:15:00,
2013-11-04 13:20:00,55.0,43.4,30.07,South,177,13.0,13.0,65,0.00,,,0.00,171,Wunderground v.1.15,2013-11-04 19:20:00,
2013-11-04 13:25:00,55.0,43.4,30.07,South,187,13.0,14.0,65,0.00,,,0.00,221,Wunderground v.1.15,2013-11-04 19:25:00,
2013-11-04 13:30:00,55.0,43.8,30.07,South,179,13.0,13.0,66,0.00,,,0.00,302,Wunderground v.1.15,2013-11-04 19:30:00,
2013-11-04 13:35:00,55.2,43.6,30.07,South,174,13.0,16.0,65,0.00,,,0.00,239,Wunderground v.1.15,2013-11-04 19:35:00,
2013-11-04 13:40:00,55.2,44.0,30.07,SSW,200,13.0,18.0,66,0.00,,,0.00,214,Wunderground v.1.15,2013-11-04 19:40:00,
2013-11-04 13:45:00,55.3,44.1,30.07,South,181,13.0,18.0,66,0.00,,,0.00,165,Wunderground v.1.15,2013-11-04 19:45:00,
2013-11-04 13:55:00,55.2,44.0,30.07,South,172,11.0,15.0,66,0.00,,,0.00,193,Wunderground v.1.15,2013-11-04 19:55:00,
2013-11-04 14:00:00,55.1,43.9,30.07,South,186,12.0,13.0,66,0.00,,,0.00,221,Wunderground v.1.15,2013-11-04 20:00:00,
2013-11-04 14:10:00,55.1,43.9,30.07,SSE,161,11.0,11.0,66,0.00,,,0.00,153,Wunderground v.1.15,2013-11-04 20:10:00,
2013-11-04 14:15:00,55.1,43.9,30.07,SSE,168,11.0,16.0,66,0.00,,,0.00,146,Wunderground v.1.15,2013-11-04 20:15:00,
2013-11-04 14:20:00,55.0,44.2,30.07,SSE,162,10.0,10.0,67,0.00,,,0.00,134,Wunderground v.1.15,2013-11-04 20:20:00,
2013-11-04 14:25:00,55.0,44.2,30.06,SSE,167,10.0,12.0,67,0.00,,,0.00,135,Wunderground v.1.15,2013-11-04 20:25:00,
2013-11-04 14:30:00,55.0,44.2,30.07,South,175,10.0,10.0,67,0.00,,,0.00,155,Wunderground v.1.15,2013-11-04 20:30:00,
2013-11-04 14:35:00,55.0,44.2,30.07,SSE,167,9.0,10.0,67,0.00,,,0.00,165,Wunderground v.1.15,2013-11-04 20:35:00,
2013-11-04 14:40:00,55.1,44.3,30.07,South,186,9.0,14.0,67,0.00,,,0.00,148,Wunderground v.1.15,2013-11-04 20:40:00,
2013-11-04 14:45:00,55.2,44.0,30.07,South,177,10.0,14.0,66,0.00,,,0.00,132,Wunderground v.1.15,2013-11-04 20:45:00,
2013-11-04 14:50:00,55.3,44.1,30.07,South,176,10.0,12.0,66,0.00,,,0.00,134,Wunderground v.1.15,2013-11-04 20:50:00,
2013-11-04 15:00:00,55.4,44.6,30.07,South,172,10.0,10.0,67,0.00,,,0.00,97,Wunderground v.1.15,2013-11-04 21:00:00,
2013-11-04 15:10:00,55.5,44.7,30.07,South,179,10.0,10.0,67,0.00,,,0.00,62,Wunderground v.1.15,2013-11-04 21:10:00,
2013-11-04 15:15:00,55.5,44.7,30.07,SSW,194,10.0,12.0,67,0.00,,,0.00,62,Wunderground v.1.15,2013-11-04 21:15:00,
2013-11-04 15:20:00,55.5,44.7,30.08,South,184,10.0,10.0,67,0.00,,,0.00,44,Wunderground v.1.15,2013-11-04 21:20:00,
2013-11-04 15:25:00,55.4,44.6,30.08,South,184,10.0,10.0,67,0.00,,,0.00,40,Wunderground v.1.15,2013-11-04 21:25:00,
2013-11-04 15:30:00,55.4,45.0,30.08,South,183,9.0,10.0,68,0.00,,,0.00,58,Wunderground v.1.15,2013-11-04 21:30:00,
2013-11-04 15:35:00,55.4,45.0,30.08,South,189,7.0,10.0,68,0.00,,,0.00,54,Wunderground v.1.15,2013-11-04 21:35:00,
2013-11-04 15:40:00,55.4,45.0,30.08,South,188,6.0,7.0,68,0.00,,,0.00,35,Wunderground v.1.15,2013-11-04 21:40:00,
2013-11-04 15:45:00,55.4,45.0,30.08,South,189,6.0,7.0,68,0.00,,,0.00,37,Wunderground v.1.15,2013-11-04 21:45:00,
2013-11-04 15:50:00,55.4,45.4,30.08,South,190,6.0,10.0,69,0.00,,,0.00,42,Wunderground v.1.15,2013-11-04 21:50:00,
2013-11-04 15:55:00,55.4,45.4,30.08,South,190,6.0,10.0,69,0.00,,,0.00,40,Wunderground v.1.15,2013-11-04 21:55:00,
2013-11-04 16:05:00,55.5,45.5,30.09,South,190,6.0,11.0,69,0.00,,,0.00,32,Wunderground v.1.15,2013-11-04 22:05:00,
2013-11-04 16:10:00,55.5,45.5,30.09,South,190,7.0,8.0,69,0.00,,,0.00,30,Wunderground v.1.15,2013-11-04 22:10:00,
2013-11-04 16:15:00,55.5,45.9,30.09,South,190,6.0,8.0,70,0.00,,,0.00,25,Wunderground v.1.15,2013-11-04 22:15:00,
2013-11-04 16:20:00,55.5,45.9,30.09,South,190,6.0,6.0,70,0.00,,,0.00,16,Wunderground v.1.15,2013-11-04 22:20:00,
2013-11-04 16:25:00,55.5,45.9,30.09,South,190,5.0,6.0,70,0.00,,,0.00,12,Wunderground v.1.15,2013-11-04 22:25:00,
2013-11-04 16:30:00,55.4,45.8,30.09,South,190,4.0,5.0,70,0.00,,,0.00,12,Wunderground v.1.15,2013-11-04 22:30:00,
2013-11-04 16:35:00,55.4,45.8,30.10,South,190,5.0,5.0,70,0.00,,,0.00,9,Wunderground v.1.15,2013-11-04 22:35:00,
2013-11-04 16:40:00,55.3,45.7,30.10,South,190,5.0,5.0,70,0.00,,,0.00,7,Wunderground v.1.15,2013-11-04 22:40:00,
2013-11-04 16:45:00,55.2,45.6,30.10,South,190,4.0,5.0,70,0.00,,,0.00,5,Wunderground v.1.15,2013-11-04 22:45:00,
2013-11-04 16:50:00,55.1,45.5,30.10,South,183,3.0,4.0,70,0.00,,,0.00,0,Wunderground v.1.15,2013-11-04 22:50:00,
2013-11-04 16:55:00,55.0,45.4,30.10,South,182,4.0,4.0,70,0.00,,,0.00,0,Wunderground v.1.15,2013-11-04 22:55:00,
2013-11-04 17:00:00,54.9,45.7,30.10,South,182,4.0,5.0,71,0.00,,,0.00,0,Wunderground v.1.15,2013-11-04 23:00:00,
2013-11-04 17:10:00,54.8,45.6,30.10,South,182,3.0,3.0,71,0.00,,,0.00,0,Wunderground v.1.15,2013-11-04 23:10:00,
2013-11-04 17:15:00,54.8,45.6,30.11,South,182,3.0,6.0,71,0.00,,,0.00,0,Wunderground v.1.15,2013-11-04 23:15:00,
2013-11-04 17:20:00,54.8,45.6,30.11,South,182,3.0,5.0,71,0.00,,,0.00,0,Wunderground v.1.15,2013-11-04 23:20:00,
2013-11-04 17:25:00,54.8,45.6,30.11,South,180,4.0,5.0,71,0.00,,,0.00,0,Wunderground v.1.15,2013-11-04 23:25:00,
2013-11-04 17:30:00,54.8,45.6,30.12,South,180,4.0,4.0,71,0.00,,,0.00,0,Wunderground v.1.15,2013-11-04 23:30:00,
2013-11-04 17:35:00,54.8,45.6,30.12,South,178,4.0,4.0,71,0.00,,,0.00,0,Wunderground v.1.15,2013-11-04 23:35:00,
2013-11-04 17:40:00,54.8,45.6,30.12,South,178,4.0,4.0,71,0.00,,,0.00,0,Wunderground v.1.15,2013-11-04 23:40:00,
2013-11-04 17:45:00,54.8,45.6,30.12,South,178,3.0,4.0,71,0.00,,,0.00,0,Wunderground v.1.15,2013-11-04 23:45:00,
2013-11-04 17:50:00,54.7,45.8,30.12,South,178,3.0,3.0,72,0.00,,,0.00,0,Wunderground v.1.15,2013-11-04 23:50:00,
2013-11-04 17:55:00,54.6,45.8,30.13,South,178,3.0,3.0,72,0.00,,,0.00,0,Wunderground v.1.15,2013-11-04 23:55:00,
2013-11-04 18:00:00,54.4,45.6,30.13,South,178,3.0,4.0,72,0.00,,,0.00,0,Wunderground v.1.15,2013-11-05 00:00:00,
2013-11-04 18:10:00,54.2,45.7,30.13,South,177,4.0,4.0,73,0.00,,,0.00,0,Wunderground v.1.15,2013-11-05 00:10:00,
2013-11-04 18:20:00,54.1,45.6,30.13,South,177,4.0,4.0,73,0.00,,,0.00,0,Wunderground v.1.15,2013-11-05 00:20:00,
2013-11-04 18:25:00,54.1,45.6,30.13,South,177,4.0,4.0,73,0.00,,,0.00,0,Wunderground v.1.15,2013-11-05 00:25:00,
2013-11-04 18:30:00,54.0,45.5,30.14,South,177,4.0,4.0,73,0.00,,,0.00,0,Wunderground v.1.15,2013-11-05 00:30:00,
2013-11-04 18:35:00,54.0,45.9,30.14,South,177,4.0,4.0,74,0.00,,,0.00,0,Wunderground v.1.15,2013-11-05 00:35:00,
2013-11-04 18:40:00,53.9,45.8,30.14,South,177,3.0,4.0,74,0.00,,,0.00,0,Wunderground v.1.15,2013-11-05 00:40:00,
2013-11-04 18:50:00,53.8,45.7,30.14,South,177,2.0,4.0,74,0.00,,,0.00,0,Wunderground v.1.15,2013-11-05 00:50:00,
2013-11-04 18:55:00,53.8,46.1,30.14,South,177,3.0,4.0,75,0.00,,,0.00,0,Wunderground v.1.15,2013-11-05 00:55:00,
2013-11-04 19:00:00,53.7,46.0,30.14,South,177,3.0,3.0,75,0.00,,,0.00,0,Wunderground v.1.15,2013-11-05 01:00:00,
2013-11-04 19:05:00,53.6,45.9,30.14,South,177,4.0,6.0,75,0.00,,,0.00,0,Wunderground v.1.15,2013-11-05 01:05:00,
2013-11-04 19:10:00,53.6,45.9,30.14,South,176,5.0,6.0,75,0.00,,,0.00,0,Wunderground v.1.15,2013-11-05 01:10:00,
2013-11-04 19:15:00,53.5,45.8,30.14,South,175,5.0,6.0,75,0.00,,,0.00,0,Wunderground v.1.15,2013-11-05 01:15:00,
2013-11-04 19:25:00,53.5,46.1,30.15,South,174,5.0,5.0,76,0.00,,,0.00,0,Wunderground v.1.15,2013-11-05 01:25:00,
2013-11-04 19:30:00,53.4,45.7,30.15,South,174,4.0,4.0,75,0.00,,,0.00,0,Wunderground v.1.15,2013-11-05 01:30:00,
2013-11-04 19:35:00,53.4,45.7,30.15,South,174,4.0,5.0,75,0.00,,,0.00,0,Wunderground v.1.15,2013-11-05 01:35:00,
2013-11-04 19:40:00,53.5,45.8,30.15,South,174,4.0,4.0,75,0.00,,,0.00,0,Wunderground v.1.15,2013-11-05 01:40:00,
2013-11-04 19:45:00,53.5,45.8,30.15,South,173,4.0,4.0,75,0.00,,,0.00,0,Wunderground v.1.15,2013-11-05 01:45:00,
2013-11-04 19:55:00,53.5,45.8,30.15,South,173,4.0,4.0,75,0.00,,,0.00,0,Wunderground v.1.15,2013-11-05 01:55:00,
2013-11-04 20:00:00,53.5,45.8,30.15,South,173,4.0,6.0,75,0.00,,,0.00,0,Wunderground v.1.15,2013-11-05 02:00:00,
2013-11-04 20:05:00,53.5,45.8,30.15,South,171,5.0,6.0,75,0.00,,,0.00,0,Wunderground v.1.15,2013-11-05 02:05:00,
2013-11-04 20:10:00,53.5,45.8,30.15,South,169,5.0,5.0,75,0.00,,,0.00,0,Wunderground v.1.15,2013-11-05 02:10:00,
2013-11-04 20:15:00,53.5,45.8,30.16,SSE,165,5.0,5.0,75,0.00,,,0.00,0,Wunderground v.1.15,2013-11-05 02:15:00,
2013-11-04 20:20:00,53.4,45.7,30.15,SSE,164,5.0,5.0,75,0.00,,,0.00,0,Wunderground v.1.15,2013-11-05 02:20:00,
2013-11-04 20:30:00,53.4,45.7,30.15,SSE,160,6.0,9.0,75,0.00,,,0.00,0,Wunderground v.1.15,2013-11-05 02:30:00,
2013-11-04 20:35:00,53.4,45.7,30.15,SSE,156,6.0,9.0,75,0.00,,,0.00,0,Wunderground v.1.15,2013-11-05 02:35:00,
2013-11-04 20:40:00,53.4,45.7,30.15,SSE,163,6.0,7.0,75,0.00,,,0.00,0,Wunderground v.1.15,2013-11-05 02:40:00,
2013-11-04 20:45:00,53.4,45.7,30.15,SSE,163,6.0,7.0,75,0.00,,,0.00,0,Wunderground v.1.15,2013-11-05 02:45:00,
2013-11-04 20:50:00,53.4,45.7,30.16,SSE,168,5.0,5.0,75,0.00,,,0.00,0,Wunderground v.1.15,2013-11-05 02:50:00,
2013-11-04 21:00:00,53.5,45.8,30.16,SSE,161,6.0,9.0,75,0.00,,,0.00,0,Wunderground v.1.15,2013-11-05 03:00:00,
2013-11-04 21:05:00,53.5,45.8,30.16,SSE,167,6.0,9.0,75,0.00,,,0.00,0,Wunderground v.1.15,2013-11-05 03:05:00,
2013-11-04 21:10:00,53.6,45.9,30.16,SSE,165,5.0,5.0,75,0.00,,,0.00,0,Wunderground v.1.15,2013-11-05 03:10:00,
2013-11-04 21:15:00,53.6,45.9,30.16,SSE,165,5.0,5.0,75,0.00,,,0.00,0,Wunderground v.1.15,2013-11-05 03:15:00,
2013-11-04 21:20:00,53.7,46.0,30.16,South,171,5.0,5.0,75,0.00,,,0.00,0,Wunderground v.1.15,2013-11-05 03:20:00,
2013-11-04 21:25:00,53.7,45.6,30.17,SSE,164,5.0,6.0,74,0.00,,,0.00,0,Wunderground v.1.15,2013-11-05 03:25:00,
2013-11-04 21:35:00,53.7,45.6,30.17,SSE,163,6.0,6.0,74,0.00,,,0.00,0,Wunderground v.1.15,2013-11-05 03:35:00,
2013-11-04 21:40:00,53.7,46.0,30.17,SSE,168,5.0,5.0,75,0.00,,,0.00,0,Wunderground v.1.15,2013-11-05 03:40:00,
2013-11-04 21:45:00,53.7,46.0,30.17,SSE,167,4.0,5.0,75,0.00,,,0.00,0,Wunderground v.1.15,2013-11-05 03:45:00,
2013-11-04 21:50:00,53.7,46.0,30.17,South,171,5.0,5.0,75,0.00,,,0.00,0,Wunderground v.1.15,2013-11-05 03:50:00,
2013-11-04 21:55:00,53.7,45.6,30.17,South,173,6.0,6.0,74,0.00,,,0.00,0,Wunderground v.1.15,2013-11-05 03:55:00,
2013-11-04 22:05:00,53.8,46.1,30.17,South,178,5.0,9.0,75,0.00,,,0.00,0,Wunderground v.1.15,2013-11-05 04:05:00,
2013-11-04 22:10:00,53.8,46.1,30.17,South,172,5.0,5.0,75,0.00,,,0.00,0,Wunderground v.1.15,2013-11-05 04:10:00,
2013-11-04 22:15:00,53.7,46.0,30.17,South,170,5.0,5.0,75,0.00,,,0.00,0,Wunderground v.1.15,2013-11-05 04:15:00,
2013-11-04 22:20:00,53.8,46.1,30.17,SSE,166,5.0,6.0,75,0.00,,,0.00,0,Wunderground v.1.15,2013-11-05 04:20:00,
2013-11-04 22:25:00,53.8,46.1,30.17,SSE,166,6.0,6.0,75,0.00,,,0.00,0,Wunderground v.1.15,2013-11-05 04:25:00,
2013-11-04 22:30:00,53.8,46.1,30.17,South,172,6.0,7.0,75,0.00,,,0.00,0,Wunderground v.1.15,2013-11-05 04:30:00,
2013-11-04 22:40:00,53.9,46.2,30.17,South,175,6.0,6.0,75,0.00,,,0.00,0,Wunderground v.1.15,2013-11-05 04:40:00,
2013-11-04 22:45:00,53.8,46.4,30.17,South,176,5.0,6.0,76,0.00,,,0.00,0,Wunderground v.1.15,2013-11-05 04:45:00,
2013-11-04 22:50:00,53.7,46.3,30.17,South,177,5.0,6.0,76,0.00,,,0.00,0,Wunderground v.1.15,2013-11-05 04:50:00,
2013-11-04 22:55:00,53.7,46.3,30.18,South,177,6.0,6.0,76,0.00,,,0.00,0,Wunderground v.1.15,2013-11-05 04:55:00,
2013-11-04 23:00:00,53.6,46.2,30.18,South,178,6.0,6.0,76,0.00,,,0.00,0,Wunderground v.1.15,2013-11-05 05:00:00,
2013-11-04 23:05:00,53.6,46.2,30.18,South,175,6.0,6.0,76,0.00,,,0.00,0,Wunderground v.1.15,2013-11-05 05:05:00,
2013-11-04 23:10:00,53.6,46.2,30.18,South,173,6.0,7.0,76,0.00,,,0.00,0,Wunderground v.1.15,2013-11-05 05:10:00,
2013-11-04 23:15:00,53.6,46.2,30.17,SSE,165,6.0,7.0,76,0.00,,,0.00,0,Wunderground v.1.15,2013-11-05 05:15:00,
2013-11-04 23:20:00,53.6,46.2,30.17,South,178,7.0,7.0,76,0.00,,,0.00,0,Wunderground v.1.15,2013-11-05 05:20:00,
2013-11-04 23:25:00,53.7,46.3,30.18,South,175,7.0,7.0,76,0.00,,,0.00,0,Wunderground v.1.15,2013-11-05 05:25:00,
2013-11-04 23:30:00,53.7,46.3,30.18,South,180,6.0,8.0,76,0.00,,,0.00,0,Wunderground v.1.15,2013-11-05 05:30:00,
2013-11-04 23:35:00,53.6,46.2,30.18,South,177,6.0,8.0,76,0.00,,,0.00,0,Wunderground v.1.15,2013-11-05 05:35:00,
2013-11-04 23:40:00,53.5,46.5,30.18,South,175,6.0,9.0,77,0.00,,,0.00,0,Wunderground v.1.15,2013-11-05 05:40:00,
2013-11-04 23:45:00,53.5,46.5,30.18,South,177,6.0,9.0,77,0.00,,,0.00,0,Wunderground v.1.15,2013-11-05 05:45:00,
2013-11-04 23:50:00,53.4,46.4,30.18,South,178,6.0,6.0,77,0.00,,,0.00,0,Wunderground v.1.15,2013-11-05 05:50:00,
2013-11-04 23:55:00,53.4,46.4,30.18,South,169,6.0,6.0,77,0.00,,,0.00,0,Wunderground v.1.15,2013-11-05 05:55:00,